KC5EZZ-2 Weather Reports


Display with metric or nautical units.
time (UTC)temp
F
wind
direction
speed
MPH
gust
MPH
rain 1hr
in
rain 24hr
in
rain mn
in
humidity
%
barometer
mb
20180426013631 51 15 3.0 4.0 0.00 0.00 0.00 61 948.0
20180426013129 52 15 4.0 4.0 0.00 0.00 0.00 61 948.0
20180426012628 52 11 4.0 4.0 0.00 0.00 0.00 61 948.0
20180426012129 53 13 4.0 5.0 0.00 0.00 0.00 61 948.0
20180426011625 53 11 4.0 6.0 0.00 0.00 0.00 60 948.0
20180426011127 53 21 5.0 7.0 0.00 0.00 0.00 60 948.0
20180426010628 54 14 6.0 8.0 0.00 0.00 0.00 59 948.0
20180426010126 54 7 7.0 8.0 0.00 0.00 0.00 58 948.0
20180426005627 55 356 6.0 7.0 0.00 0.00 0.00 57 948.0
20180426005129 55 12 6.0 8.0 0.00 0.00 0.00 57 948.0
20180426004627 56 335 6.0 7.0 0.00 0.00 0.00 57 948.0
20180426004129 56 23 5.0 8.0 0.00 0.00 0.00 58 948.0
20180426003626 56 3 6.0 6.0 0.00 0.00 0.00 59 948.0
20180426003122 55 16 5.0 7.0 0.00 0.00 0.00 58 948.0
20180426002125 55 23 6.0 9.0 0.00 0.00 0.00 57 948.0
20180426001622 55 24 8.0 9.0 0.00 0.00 0.00 56 948.0
20180426001123 55 17 7.0 8.0 0.00 0.00 0.00 57 948.0
20180426000625 55 28 7.0 9.0 0.00 0.00 0.00 56 948.0
20180426000121 56 33 7.0 9.0 0.00 0.00 0.00 56 948.0
20180425235623 56 22 7.0 10.0 0.00 0.00 0.00 55 948.0
20180425234611 56 24 8.0 8.0 0.00 0.00 0.00 56 948.0
20180425233614 55 43 7.0 10.0 0.00 0.00 0.00 57 948.0
20180425233111 55 51 8.0 10.0 0.00 0.00 0.00 56 948.0
20180425232114 56 10 9.0 11.0 0.00 0.00 0.00 56 948.0
20180425231610 56 32 8.0 9.0 0.00 0.00 0.00 56 948.0
20180425231112 56 32 7.0 12.0 0.00 0.00 0.00 55 948.0
20180425230111 56 37 8.0 12.0 0.00 0.00 0.00 57 948.0
20180425225114 56 62 9.0 10.0 0.00 0.00 0.00 54 948.0
20180425224114 56 48 9.0 10.0 0.00 0.00 0.00 55 948.0
20180425223615 56 73 6.0 7.0 0.00 0.00 0.00 55 948.0
20180425223113 56 62 6.0 10.0 0.00 0.00 0.00 53 948.0
20180425222615 57 54 7.0 8.0 0.00 0.00 0.00 54 948.0
20180425222116 57 32 7.0 10.0 0.00 0.00 0.00 52 948.0
20180425221613 58 55 7.0 8.0 0.00 0.00 0.00 50 948.0
20180425221114 58 42 6.0 7.0 0.00 0.00 0.00 50 948.0
20180425220616 58 75 4.0 7.0 0.00 0.00 0.00 50 948.0
20180425220112 59 57 6.0 6.0 0.00 0.00 0.00 50 948.0
20180425215614 58 63 4.0 7.0 0.00 0.00 0.00 53 948.0
20180425215116 57 46 5.0 11.0 0.00 0.00 0.00 55 948.0
20180425214612 56 79 5.0 9.0 0.00 0.00 0.00 55 948.0
20180425214113 56 131 6.0 10.0 0.00 0.00 0.00 57 949.0
20180425213611 56 84 9.0 10.0 0.00 0.00 0.00 55 949.0
20180425212611 57 28 6.0 9.0 0.00 0.00 0.00 54 949.0
20180425212112 57 26 8.0 9.0 0.00 0.00 0.00 53 949.0
20180425211609 58 38 7.0 10.0 0.00 0.00 0.00 52 949.0
20180425211110 58 29 8.0 10.0 0.00 0.00 0.00 52 949.0
20180425210612 58 30 7.0 9.0 0.00 0.00 0.00 56 949.0
20180425210109 56 17 6.0 9.0 0.00 0.00 0.00 62 949.0
20180425205610 55 347 7.0 9.0 0.00 0.00 0.00 63 949.0
20180425205112 54 48 7.0 9.0 0.00 0.00 0.00 64 949.0
20180425204610 53 47 7.0 10.0 0.00 0.00 0.00 64 949.0
20180425204111 53 53 8.0 11.0 0.00 0.00 0.00 65 949.0
20180425203613 53 58 10.0 11.0 0.00 0.00 0.00 66 949.0
20180425203108 53 39 6.0 10.0 0.00 0.00 0.00 67 949.0
20180425202609 52 9 7.0 10.0 0.00 0.00 0.00 67 950.0
20180425202107 52 21 8.0 11.0 0.00 0.00 0.00 67 950.0
20180425201603 52 0 8.0 10.0 0.00 0.00 0.00 68 950.0
20180425201105 52 11 10.0 10.0 0.00 0.00 0.00 69 950.0
20180425200606 52 19 10.0 12.0 0.00 0.00 0.00 69 950.0
20180425200103 51 42 8.0 11.0 0.00 0.00 0.00 71 950.0
20180425195604 51 37 8.0 9.0 0.00 0.00 0.00 72 950.0
20180425195106 51 35 8.0 12.0 0.00 0.00 0.00 72 950.0
20180425194601 50 8 10.0 12.0 0.00 0.00 0.00 72 950.0
20180425194103 50 15 10.0 10.0 0.00 0.00 0.00 72 950.0
20180425193604 50 21 9.0 9.0 0.00 0.00 0.00 73 950.0
20180425193057 50 34 7.0 9.0 0.00 0.00 0.00 72 950.0
20180425192558 50 29 7.0 10.0 0.00 0.00 0.00 72 950.0
20180425192100 50 17 8.0 10.0 0.00 0.00 0.00 72 950.0
20180425191556 50 31 9.0 11.0 0.00 0.00 0.00 72 950.0
20180425190050 50 15 6.0 9.0 0.00 0.00 0.00 73 951.0
20180425185551 50 7 8.0 9.0 0.00 0.00 0.00 73 950.0
20180425185053 50 1 6.0 10.0 0.00 0.00 0.00 74 950.0
20180425184549 50 28 7.0 10.0 0.00 0.00 0.00 74 950.0
20180425184051 50 31 8.0 12.0 0.00 0.00 0.00 74 950.0
20180425183552 50 29 10.0 16.0 0.00 0.00 0.00 75 950.0
20180425182552 49 34 10.0 15.0 0.00 0.00 0.00 76 950.0
20180425182054 49 66 13.0 14.0 0.00 0.00 0.00 76 950.0
20180425181547 49 46 10.0 15.0 0.00 0.00 0.00 76 950.0
20180425181049 49 63 11.0 18.0 0.00 0.00 0.00 76 950.0
20180425180550 49 73 14.0 19.0 0.00 0.00 0.00 77 950.0
20180425175542 49 43 12.0 11.0 0.00 0.00 0.00 77 951.0
20180425174527 49 32 9.0 10.0 0.00 0.00 0.00 77 951.0
20180425174026 49 9 9.0 10.0 0.00 0.00 0.00 76 951.0
20180425173525 49 5 8.0 12.0 0.00 0.00 0.00 76 951.0
20180425173016 49 43 10.0 12.0 0.00 0.00 0.00 76 951.0
20180425172517 50 12 7.0 12.0 0.00 0.00 0.00 76 950.0
20180425172019 50 33 12.0 14.0 0.00 0.00 0.00 75 950.0
20180425171510 50 50 12.0 15.0 0.00 0.00 0.00 75 950.0
20180425170513 50 46 15.0 19.0 0.00 0.00 0.00 74 950.0
20180425170010 50 43 13.0 15.0 0.00 0.00 0.00 72 950.0
20180425165511 51 27 12.0 17.0 0.00 0.00 0.00 70 951.0
20180425164501 52 41 12.0 15.0 0.00 0.00 0.00 64 951.0
20180425164003 52 34 12.0 16.0 0.00 0.00 0.00 62 951.0
20180425163002 54 36 12.0 21.0 0.00 0.00 0.00 58 951.0
20180425162503 54 28 13.0 17.0 0.00 0.00 0.00 57 950.0
20180425162005 54 59 14.0 18.0 0.00 0.00 0.00 56 950.0
20180425161502 55 65 15.0 20.0 0.00 0.00 0.00 54 950.0
20180425161004 54 58 14.0 18.0 0.00 0.00 0.00 56 951.0
20180425160003 54 41 13.0 17.0 0.00 0.00 0.00 55 951.0
20180425155504 54 49 13.0 16.0 0.00 0.00 0.00 55 950.0
20180425154503 54 62 12.0 16.0 0.00 0.00 0.00 54 950.0
20180425154005 54 53 12.0 16.0 0.00 0.00 0.00 54 951.0
20180425153004 55 10 11.0 15.0 0.00 0.00 0.00 52 951.0
20180425152506 55 53 11.0 15.0 0.00 0.00 0.00 52 950.0
20180425150455 55 17 12.0 15.0 0.00 0.00 0.00 53 950.0
20180425144947 54 62 12.0 15.0 0.00 0.00 0.00 51 950.0
20180425144443 55 25 13.0 17.0 0.00 0.00 0.00 50 950.0
20180425143939 55 11 10.0 15.0 0.00 0.00 0.00 52 950.0
20180425143441 55 55 15.0 16.0 0.00 0.00 0.00 50 950.0
20180425142439 56 46 14.0 17.0 0.00 0.00 0.00 50 949.0
20180425141940 56 34 13.0 15.0 0.00 0.00 0.00 50 949.0
20180425141429 56 24 10.0 14.0 0.00 0.00 0.00 51 949.0
20180425140930 56 30 11.0 13.0 0.00 0.00 0.00 54 949.0
20180425135928 56 49 11.0 16.0 0.00 0.00 0.00 52 948.0
20180425135430 57 47 12.0 15.0 0.00 0.00 0.00 53 948.0
20180425134427 57 25 11.0 19.0 0.00 0.00 0.00 55 948.0
20180425133923 56 64 15.0 19.0 0.00 0.00 0.00 55 948.0
20180425132923 57 41 11.0 15.0 0.00 0.00 0.00 54 948.0
20180425132425 57 45 13.0 15.0 0.00 0.00 0.00 55 948.0
20180425131926 57 41 13.0 16.0 0.00 0.00 0.00 57 948.0
20180425125924 57 24 11.0 15.0 0.00 0.00 0.00 58 947.0
20180425125426 57 9 12.0 15.0 0.00 0.00 0.00 59 947.0
20180425124927 57 11 9.0 14.0 0.00 0.00 0.00 61 947.0
20180425124424 57 36 13.0 16.0 0.00 0.00 0.00 60 947.0
20180425123925 58 26 13.0 15.0 0.00 0.00 0.00 61 947.0
20180425123427 58 33 12.0 16.0 0.00 0.00 0.00 61 947.0
20180425122920 58 27 11.0 15.0 0.00 0.00 0.00 60 947.0
20180425122422 58 21 11.0 15.0 0.00 0.00 0.00 61 947.0
20180425120917 59 44 14.0 18.0 0.00 0.00 0.00 61 946.0
20180425115916 60 33 15.0 18.0 0.00 0.00 0.00 59 946.0
20180425115418 62 50 15.0 20.0 0.00 0.00 0.00 58 946.0
20180425114914 63 41 13.0 15.0 0.00 0.00 0.00 59 946.0
20180425114404 64 65 11.0 15.0 0.00 0.00 0.00 71 946.0
20180425112906 64 83 11.0 14.0 0.00 0.00 0.00 70 946.0
20180425111859 64 75 10.0 15.0 0.00 0.00 0.00 70 946.0
20180425110401 65 85 10.0 17.0 0.00 0.00 0.00 68 945.0
20180425105858 65 75 14.0 14.0 0.00 0.00 0.00 67 945.0
20180425104901 65 72 11.0 17.0 0.00 0.00 0.00 64 945.0
20180425103901 65 82 14.0 15.0 0.00 0.00 0.00 61 945.0
20180425103402 66 72 13.0 16.0 0.00 0.00 0.00 59 945.0
20180425102900 66 78 12.0 18.0 0.00 0.00 0.00 59 945.0
20180425101400 66 85 13.0 16.0 0.00 0.00 0.00 60 945.0
20180425100902 66 74 12.0 17.0 0.00 0.00 0.00 61 945.0
20180425094401 65 81 10.0 13.0 0.00 0.00 0.00 65 945.0
20180425093903 65 70 12.0 13.0 0.00 0.00 0.00 65 945.0
20180425093404 65 81 10.0 12.0 0.00 0.00 0.00 65 945.0
20180425092404 65 63 9.0 14.0 0.00 0.00 0.00 64 945.0
20180425091905 65 86 10.0 15.0 0.00 0.00 0.00 64 945.0
20180425085859 66 48 10.0 11.0 0.00 0.00 0.00 61 944.0
20180425085401 66 46 8.0 10.0 0.00 0.00 0.00 61 944.0
20180425084902 66 51 9.0 10.0 0.00 0.00 0.00 61 944.0
20180425083404 66 46 7.0 8.0 0.00 0.00 0.00 59 944.0
20180425082856 66 55 7.0 9.0 0.00 0.00 0.00 60 944.0
20180425080853 66 60 8.0 10.0 0.00 0.00 0.00 63 944.0
20180425075851 66 51 7.0 12.0 0.00 0.00 0.00 62 944.0
20180425075353 66 68 10.0 12.0 0.00 0.00 0.00 62 944.0
20180425070850 68 108 10.0 15.0 0.00 0.00 0.00 51 944.0
20180425070351 68 86 11.0 14.0 0.00 0.00 0.00 51 944.0
20180425064852 69 114 11.0 16.0 0.00 0.00 0.00 48 943.0
20180425064347 69 89 13.0 14.0 0.00 0.00 0.00 48 943.0
20180425062350 68 148 11.0 16.0 0.00 0.00 0.00 48 943.0
20180425060841 69 155 11.0 15.0 0.00 0.00 0.00 48 943.0
20180425055839 69 127 11.0 20.0 0.00 0.00 0.00 49 943.0
20180425055341 69 153 15.0 18.0 0.00 0.00 0.00 49 943.0
20180425054340 69 166 14.0 20.0 0.00 0.00 0.00 50 943.0
20180425053333 69 139 14.0 20.0 0.00 0.00 0.00 52 943.0
20180425052329 68 158 12.0 20.0 0.00 0.00 0.00 54 943.0
20180425051825 68 147 14.0 21.0 0.00 0.00 0.00 55 943.0
20180425050327 68 152 13.0 16.0 0.00 0.00 0.00 61 943.0
20180425045825 68 141 12.0 17.0 0.00 0.00 0.00 62 944.0
20180425045322 67 136 13.0 18.0 0.00 0.00 0.00 62 944.0
20180425044823 67 133 12.0 16.0 0.00 0.00 0.00 63 944.0
20180425044322 67 129 11.0 20.0 0.00 0.00 0.00 64 944.0
20180425043325 67 148 11.0 15.0 0.00 0.00 0.00 64 944.0
20180425042325 67 163 12.0 18.0 0.00 0.00 0.00 63 944.0
20180425041817 67 121 11.0 20.0 0.00 0.00 0.00 62 944.0
20180425041308 67 87 14.0 19.0 0.00 0.00 0.00 60 943.0
20180425040810 67 117 11.0 21.0 0.00 0.00 0.00 60 943.0
20180425035808 68 104 18.0 25.0 0.00 0.00 0.00 59 943.0
20180425035309 68 110 15.0 21.0 0.00 0.00 0.00 58 943.0
20180425034301 68 91 18.0 22.0 0.00 0.00 0.00 59 943.0
20180425032259 67 111 18.0 18.0 0.00 0.00 0.00 63 943.0
20180425031756 67 79 13.0 20.0 0.00 0.00 0.00 64 943.0
20180425030756 67 88 15.0 25.0 0.00 0.00 0.00 63 942.0
20180425025754 68 90 16.0 28.0 0.00 0.00 0.00 60 942.0
20180425024254 70 65 12.0 30.0 0.00 0.00 0.00 48 942.0
20180425021245 79 54 32.0 18.0 0.00 0.00 0.00 26 940.0
20180425020248 84 170 5.0 9.0 0.00 0.00 0.00 20 940.0